• En España
  • Lista de países
  • Para 7 días
  • Temperatura del agua
  • Mapa Satelital
  • El tiempo en el mapa
  • Informadores
  • user-avatar
    Iniciar sesión

    Tiempo cada hora Karelskoe Zaruche

    Hoy, 22 Agosto, Miércoles

    Tiempo Temperatura Precipitaciones Viento Presión Humedad
    00:00 +11°C° 0 mm 4 mps 740 mmHg 87%
    01:00 +10°C° 0 mm 4 mps 740 mmHg 87%
    02:00 +10°C° 0 mm 4 mps 740 mmHg 87%
    03:00 +10°C° 0 mm 4 mps 741 mmHg 87%
    04:00 +10°C° 0 mm 4 mps 741 mmHg 87%
    05:00 +10°C° 0 mm 4 mps 741 mmHg 87%
    06:00 +10°C° 0 mm 5 mps 742 mmHg 81%
    07:00 +12°C° 0 mm 5 mps 742 mmHg 75%
    08:00 +13°C° 0 mm 6 mps 743 mmHg 69%
    09:00 +14°C° 0 mm 6 mps 743 mmHg 64%
    10:00 +15°C° 0 mm 6 mps 744 mmHg 59%
    11:00 +16°C° 0 mm 6 mps 744 mmHg 55%
    12:00 +16°C° 0,1 mm 6 mps 745 mmHg 53%
    13:00 +17°C° 0,1 mm 6 mps 745 mmHg 52%
    14:00 +17°C° 0,1 mm 6 mps 745 mmHg 51%
    15:00 +16°C° 0 mm 5 mps 745 mmHg 54%
    16:00 +17°C° 0 mm 4 mps 746 mmHg 56%
    17:00 +16°C° 0 mm 3 mps 746 mmHg 59%
    18:00 +14°C° 0 mm 3 mps 747 mmHg 64%
    19:00 +12°C° 0 mm 3 mps 747 mmHg 70%
    20:00 +12°C° 0 mm 2 mps 748 mmHg 75%
    21:00 +10°C° 0 mm 2 mps 748 mmHg 77%
    22:00 +9°C° 0 mm 2 mps 748 mmHg 80%
    23:00 +8°C° 0 mm 2 mps 749 mmHg 82%

    Mañana, 23 Agosto, Jueves

    Tiempo Temperatura Precipitaciones Viento Presión Humedad
    00:00 +8°C° 0 mm 2 mps 749 mmHg 83%
    01:00 +8°C° 0 mm 2 mps 749 mmHg 84%
    02:00 +7°C° 0 mm 2 mps 749 mmHg 85%
    03:00 +7°C° 0 mm 2 mps 749 mmHg 86%
    04:00 +7°C° 0 mm 2 mps 750 mmHg 87%
    05:00 +7°C° 0 mm 2 mps 750 mmHg 87%
    06:00 +9°C° 0 mm 2 mps 750 mmHg 80%
    07:00 +11°C° 0 mm 3 mps 750 mmHg 73%
    08:00 +14°C° 0 mm 3 mps 750 mmHg 66%
    09:00 +15°C° 0 mm 4 mps 750 mmHg 61%
    10:00 +18°C° 0 mm 4 mps 749 mmHg 56%
    11:00 +19°C° 0 mm 4 mps 749 mmHg 51%
    12:00 +20°C° 0 mm 4 mps 749 mmHg 51%
    13:00 +20°C° 0 mm 4 mps 749 mmHg 50%
    14:00 +21°C° 0 mm 4 mps 748 mmHg 49%
    15:00 +21°C° 0 mm 4 mps 748 mmHg 53%
    16:00 +20°C° 0 mm 3 mps 748 mmHg 57%
    17:00 +20°C° 0 mm 3 mps 748 mmHg 60%
    18:00 +18°C° 0 mm 2 mps 748 mmHg 67%
    19:00 +16°C° 0 mm 2 mps 748 mmHg 73%
    20:00 +14°C° 0 mm 2 mps 748 mmHg 80%
    21:00 +14°C° 0 mm 2 mps 748 mmHg 82%
    22:00 +13°C° 0 mm 2 mps 748 mmHg 85%
    23:00 +12°C° 0 mm 2 mps 748 mmHg 87%

    Pasado mañana, 24 Agosto, Viernes

    Tiempo Temperatura Precipitaciones Viento Presión Humedad
    00:00 +12°C° 0 mm 2 mps 748 mmHg 88%
    01:00 +12°C° 0 mm 2 mps 748 mmHg 89%
    02:00 +10°C° 0 mm 2 mps 748 mmHg 91%
    03:00 +10°C° 0 mm 2 mps 748 mmHg 91%
    04:00 +10°C° 0 mm 2 mps 749 mmHg 92%
    05:00 +10°C° 0 mm 2 mps 749 mmHg 92%
    06:00 +13°C° 0 mm 2 mps 749 mmHg 85%
    07:00 +15°C° 0 mm 2 mps 749 mmHg 78%
    08:00 +17°C° 0 mm 2 mps 749 mmHg 70%
    09:00 +19°C° 0 mm 2 mps 749 mmHg 64%
    10:00 +20°C° 0 mm 3 mps 749 mmHg 58%
    11:00 +22°C° 0 mm 3 mps 748 mmHg 52%
    12:00 +22°C° 0 mm 3 mps 748 mmHg 51%
    13:00 +24°C° 0 mm 3 mps 748 mmHg 49%
    14:00 +24°C° 0 mm 3 mps 748 mmHg 48%
    15:00 +24°C° 0 mm 3 mps 748 mmHg 53%
    16:00 +23°C° 0 mm 2 mps 747 mmHg 57%
    17:00 +23°C° 0 mm 2 mps 747 mmHg 62%
    18:00 +20°C° 0 mm 2 mps 747 mmHg 69%
    19:00 +17°C° 0 mm 2 mps 747 mmHg 76%
    20:00 +15°C° 0 mm 2 mps 747 mmHg 84%
    21:00 +15°C° 0 mm 2 mps 747 mmHg 85%
    22:00 +14°C° 0 mm 2 mps 747 mmHg 87%
    23:00 +13°C° 0 mm 2 mps 747 mmHg 89%

    25 Agosto, Sábado

    Tiempo Temperatura Precipitaciones Viento Presión Humedad
    00:00 +13°C° 0 mm 2 mps 747 mmHg 90%
    01:00 +13°C° 0 mm 2 mps 747 mmHg 91%
    02:00 +12°C° 0 mm 2 mps 747 mmHg 92%
    03:00 +12°C° 0 mm 2 mps 747 mmHg 92%
    04:00 +12°C° 0 mm 2 mps 747 mmHg 93%
    05:00 +10°C° 0 mm 2 mps 747 mmHg 93%
    06:00 +14°C° 0 mm 2 mps 747 mmHg 85%
    07:00 +16°C° 0 mm 3 mps 747 mmHg 77%
    08:00 +18°C° 0 mm 3 mps 747 mmHg 68%
    09:00 +19°C° 0 mm 4 mps 747 mmHg 62%
    10:00 +21°C° 0 mm 4 mps 747 mmHg 55%
    11:00 +23°C° 0 mm 4 mps 747 mmHg 49%
    12:00 +23°C° 0 mm 4 mps 746 mmHg 48%
    13:00 +25°C° 0 mm 4 mps 746 mmHg 47%
    14:00 +25°C° 0 mm 4 mps 746 mmHg 46%
    15:00 +25°C° 0 mm 4 mps 746 mmHg 50%
    16:00 +24°C° 0 mm 3 mps 746 mmHg 55%
    17:00 +22°C° 0 mm 3 mps 745 mmHg 60%
    18:00 +20°C° 0 mm 3 mps 745 mmHg 65%
    19:00 +18°C° 0 mm 3 mps 745 mmHg 71%
    20:00 +17°C° 0 mm 2 mps 745 mmHg 76%
    21:00 +16°C° 0 mm 2 mps 745 mmHg 77%
    22:00 +16°C° 0 mm 2 mps 745 mmHg 79%
    23:00 +14°C° 0 mm 3 mps 746 mmHg 80%

    26 Agosto, Domingo

    Tiempo Temperatura Precipitaciones Viento Presión Humedad
    00:00 +15°C° 0 mm 2 mps 746 mmHg 82%
    01:00 +14°C° 0 mm 2 mps 746 mmHg 84%
    02:00 +14°C° 0 mm 2 mps 746 mmHg 86%
    03:00 +14°C° 0 mm 2 mps 746 mmHg 87%
    04:00 +13°C° 0 mm 2 mps 746 mmHg 88%
    05:00 +13°C° 0 mm 2 mps 746 mmHg 89%
    06:00 +14°C° 0 mm 3 mps 746 mmHg 82%
    07:00 +17°C° 0 mm 3 mps 746 mmHg 75%
    08:00 +19°C° 0 mm 3 mps 746 mmHg 68%
    09:00 +21°C° 0 mm 3 mps 746 mmHg 61%
    10:00 +22°C° 0 mm 4 mps 746 mmHg 54%
    11:00 +25°C° 0 mm 4 mps 746 mmHg 47%
    12:00 +26°C° 0 mm 4 mps 746 mmHg 46%
    13:00 +26°C° 0 mm 4 mps 746 mmHg 45%
    14:00 +26°C° 0 mm 4 mps 745 mmHg 44%
    15:00 +26°C° 0 mm 3 mps 745 mmHg 49%
    16:00 +25°C° 0 mm 3 mps 745 mmHg 54%
    17:00 +24°C° 0 mm 2 mps 745 mmHg 59%
    18:00 +21°C° 0 mm 2 mps 745 mmHg 64%
    19:00 +19°C° 0 mm 2 mps 745 mmHg 70%
    20:00 +17°C° 0 mm 2 mps 746 mmHg 75%
    21:00 +17°C° 0 mm 2 mps 746 mmHg 76%
    22:00 +16°C° 0 mm 2 mps 746 mmHg 76%
    23:00 +16°C° 0 mm 2 mps 746 mmHg 77%

    27 Agosto, Lunes

    Tiempo Temperatura Precipitaciones Viento Presión Humedad
    00:00 +15°C° 0 mm 2 mps 746 mmHg 78%
    01:00 +15°C° 0 mm 2 mps 746 mmHg 79%
    02:00 +14°C° 0 mm 2 mps 746 mmHg 80%
    03:00 +14°C° 0 mm 2 mps 746 mmHg 81%
    04:00 +14°C° 0 mm 2 mps 746 mmHg 82%
    05:00 +13°C° 0 mm 2 mps 746 mmHg 83%
    06:00 +15°C° 0 mm 2 mps 747 mmHg 77%
    07:00 +17°C° 0 mm 3 mps 747 mmHg 70%
    08:00 +19°C° 0 mm 3 mps 747 mmHg 64%
    09:00 +21°C° 0 mm 3 mps 747 mmHg 58%
    10:00 +23°C° 0 mm 4 mps 747 mmHg 52%
    11:00 +26°C° 0 mm 4 mps 747 mmHg 46%
    12:00 +27°C° 0 mm 4 mps 746 mmHg 44%
    13:00 +27°C° 0 mm 4 mps 746 mmHg 42%
    14:00 +28°C° 0 mm 5 mps 746 mmHg 41%
    15:00 +27°C° 0 mm 4 mps 746 mmHg 46%
    16:00 +26°C° 0 mm 3 mps 746 mmHg 52%
    17:00 +25°C° 0 mm 2 mps 746 mmHg 58%
    18:00 +24°C° 0 mm 2 mps 746 mmHg 63%
    19:00 +21°C° 0 mm 2 mps 747 mmHg 69%
    20:00 +19°C° 0 mm 2 mps 747 mmHg 74%
    21:00 +18°C° 0 mm 2 mps 747 mmHg 76%
    22:00 +18°C° 0 mm 2 mps 748 mmHg 77%
    23:00 +17°C° 0 mm 2 mps 748 mmHg 79%
    Mostrar más